Regional Weather Roundup
Issued by NWS

Home | Current Version | Previous Version | Text Only | Print | Product List | Glossary Off
Versions: 1 2 3 4 5 6 7 8 9 10 11 12 13 14 15 16 17 18 19 20 21 22 23 24 25 26 27 28 29 30 31 32 33 34 35 36 37 38 39 40 41 42 43 44 45 46 47 48 49 50

000
ASUS43 KOAX 230102
RWRNE

WEATHER ROUNDUP FOR NEBRASKA
NATIONAL WEATHER SERVICE OMAHA NE
800 PM CDT WED MAR 22 2017

NOTES: SATELLITE DATA IS BEING USED TO AUGMENT CLOUD COVER ABOVE
       12000 FEET.
       "FAIR" INDICATES FEW OR NO CLOUDS BELOW 12,000 FEET WITH NO
       SIGNIFICANT WEATHER AND/OR OBSTRUCTIONS TO VISIBILITY.

  * THESE STATIONS DO NOT REPORT WEATHER SUCH AS RAIN...SNOW OR FOG.

NEZ001>004-019>022-054>056-230200-
NEBRASKA PANHANDLE

CITY           SKY/WX    TMP DP  RH WIND       PRES   REMARKS
SCOTTSBLUFF    CLOUDY    62  34  35 SE18      29.81R
ALLIANCE       CLOUDY    56  36  47 S20       29.83F
CHADRON        CLOUDY    61  38  42 S12       29.78S
KIMBALL        CLOUDY    61  38  42 SE20G25   29.85S
SIDNEY         CLOUDY    56  35  45 SE21G30   29.86S
$$

NEZ057>060-069>072-079>082-230200-
SOUTHWEST NEBRASKA

CITY           SKY/WX    TMP DP  RH WIND       PRES   REMARKS
NORTH PLATTE   CLOUDY    50  31  48 SE13G24   29.98S
IMPERIAL       CLOUDY    52  34  50 SE18G26   29.94S
LEXINGTON      CLOUDY    49  28  43 SE16      30.03F
MCCOOK         CLOUDY    49  32  52 SE15G24   30.00F
OGALLALA       CLOUDY    55  35  47 SE16      29.93S
$$

NEZ005>010-023>029-035>040-094-230200-
NORTH CENTRAL NEBRASKA

CITY           SKY/WX    TMP DP  RH WIND       PRES   REMARKS
VALENTINE      CLOUDY    49  30  48 S17G29    29.91F
AINSWORTH      CLOUDY    48  32  53 S18G25    29.96R
BROKEN BOW     CLOUDY    49  26  41 S20G32    30.01S
O`NEILL        CLOUDY    51  24  34 SE15G22   30.01F
ORD            CLOUDY    51  20  29 S20       30.03S
THEDFORD       CLOUDY    48  31  50 S16G23    29.97S
$$

NEZ041-046>049-061>064-073>077-083>087-230200-
SOUTH CENTRAL NEBRASKA

CITY           SKY/WX    TMP DP  RH WIND       PRES   REMARKS
GRAND ISLAND   CLOUDY    51  25  36 S12G21    30.08F
AURORA         CLOUDY    53  20  27 SE14G20   30.09S
HASTINGS       CLOUDY    51  22  31 SE10      30.09S
HEBRON         CLOUDY    54  21  28 SE15      30.11F
HOLDREGE       CLOUDY    50  26  38 SE14G20   30.04F
KEARNEY *      CLOUDY    48  23  37 SE12      30.07F
YORK           CLOUDY    54  18  24 SE12G20   30.10F
$$

NEZ011>018-030>034-042>045-230200-
NORTHEAST NEBRASKA

CITY           SKY/WX    TMP DP  RH WIND       PRES   REMARKS
NORFOLK        CLOUDY    46  21  37 SE15G25   30.10S
ALBION         CLOUDY    50  18  27 SE15G21   30.08S
BLAIR          MOCLDY    46  26  45 SE12      30.16F
FREMONT        CLOUDY    47  26  42 SE18G24   30.15F
TEKAMAH        CLOUDY    46  24  42 SE18      30.17F
WAYNE          CLEAR     43  27  52 SE13      30.13F
$$

NEZ050>053-065>068-078-088>093-230200-
SOUTHEAST NEBRASKA

CITY           SKY/WX    TMP DP  RH WIND       PRES   REMARKS
LINCOLN        CLOUDY    52  25  35 SE14      30.15F
OMAHA EPPLEY   MOCLDY    47  23  38 SE21G26   30.19S
BEATRICE       CLOUDY    55  25  31 SE14G20   30.13S
FALLS CITY     CLOUDY    53  24  32 SE16G23   30.17F
NEBRASKA CITY  CLOUDY    49  18  29 SE15G21   30.18S
PLATTSMOUTH    CLOUDY    47  21  36 SE18      30.18S
$$

NEZ044-045-051>053-067-230200-
OMAHA AREA

CITY           SKY/WX    TMP DP  RH WIND       PRES   REMARKS
OMAHA EPPLEY   MOCLDY    47  23  38 SE21G26   30.19S
BLAIR          MOCLDY    46  26  45 SE12      30.16F
FREMONT        CLOUDY    47  26  42 SE18G24   30.15F
MILLARD        CLOUDY    49  28  44 SE14G21   30.17F
OFFUTT AFB     MOCLDY    46  24  42 E18G24    30.17F
PLATTSMOUTH    CLOUDY    47  21  36 SE18      30.18S
WAHOO          CLOUDY    48  25  40 SE17      30.15F
$$



USA.gov is the U.S. government's official web portal to all federal, state and local government web resources and services.